Regional Weather Roundup
Issued by NWS

Home | Current Version | Previous Version | Graphics & Text | Print | Product List | Glossary On
Versions: 1 2 3 4 5 6 7 8 9 10 11 12 13 14 15 16 17 18 19 20 21 22 23 24 25 26 27 28 29 30 31 32 33 34 35 36 37 38 39 40 41 42 43 44 45 46 47 48 49 50
000
ASUS43 KMPX 260601
RWRMN
WEATHER ROUNDUP FOR MINNESOTA
NATIONAL WEATHER SERVICE TWIN CITIES/CHANHASSEN MN
100 AM CDT FRI MAY 26 2017


NOTE: "FAIR" INDICATES FEW OR NO CLOUDS BELOW 12,000 FEET WITH NO
SIGNIFICANT WEATHER AND/OR OBSTRUCTIONS TO VISIBILITY. N/A MEANS
CURRENT SKY AND/OR WEATHER CONDITIONS ARE NOT AVAILABLE.

MNZ060>063-068>070-260700-
   Twin Cities Metro

CITY           SKY/WX    TMP DP  RH WIND       PRES   REMARKS
TWIN CITIES    CLOUDY    62  54  74 SE8       29.69F
6HR MIN TEMP:  62; 6HR MAX TEMP:  70; 6HR PCP:  0.01;

ST PAUL        CLOUDY    61  57  87 SE5       29.71F
CRYSTAL        CLOUDY    62  53  72 SE5       29.68F
BLAINE         PTCLDY    63  55  77 SE6       29.70S
LAKEVILLE      CLOUDY    57  54  88 E3        29.70F
EDEN PRAIRIE   CLOUDY    63  54  72 SE7       29.68F
6HR MIN TEMP:  62; 6HR MAX TEMP:  70; 6HR PCP:  0.05;

SOUTH ST PAUL  CLOUDY    61  55  81 CALM      29.70F
LAKE ELMO      CLOUDY    61  55  82 SE3       29.72F
$$
MNZ001>005-007-008-013>017-022>024-027-028-260700-
   Northwest Minnesota

CITY           SKY/WX    TMP DP  RH WIND       PRES   REMARKS
BEMIDJI        CLOUDY    58  50  73 SE9       29.64R
HALLOCK        CLOUDY    59  50  72 S12       29.53S
ROSEAU         CLOUDY    61  52  72 S13       29.57F
WARROAD        CLOUDY    61  52  72 S10G18    29.59F
CROOKSTON      CLOUDY    59  50  72 S13       29.58R
FOSSTON        PTCLDY    57  48  72 SE10      29.61R
DETROIT LAKES  CLEAR     55  52  88 S8        29.63S
MOORHEAD       CLOUDY    61  54  77 S13       29.60R
PARK RAPIDS    LGT RAIN  60  49  66 SE9       29.64S
MAHNOMEN       FAIR      58  51  76 S9        29.60R
$$
MNZ006-009>011-018-025>026-260700-
   North Central Minnesota

CITY           SKY/WX    TMP DP  RH WIND       PRES   REMARKS
BAUDETTE       CLOUDY    60  50  69 S16G28    29.63S
FLAG ISLAND    CLOUDY    57  52  82 S15       29.59F
INTL FALLS     LGT RAIN  58  48  69 SE7       29.67S
6HR MIN TEMP:  58; 6HR MAX TEMP:  65; 6HR PCP: TRACE;

WASKISH        CLOUDY    61  52  72 SE10G17   29.63F
BIG FORK       LGT RAIN  57  48  72 SE6       29.69S
LONGVILLE      CLOUDY    54  52  94 SE3       29.68S
GRAND RAPIDS   LGT RAIN  52  49  89 SE9       29.72F
CRANE LAKE     CLOUDY    55  45  67 S5        29.72S
ORR            CLOUDY    55  43  62 S7        29.69R
COOK           CLOUDY    55  45  67 SE8       29.72S
WALKER         CLOUDY    58  51  76 SE9       29.65S
$$
MNZ012-019>021-037-260700-
   Northeast Minnesota

CITY           SKY/WX    TMP DP  RH WIND       PRES   REMARKS
DULUTH         CLOUDY    53  44  71 E5        29.72F
6HR MIN TEMP:  53; 6HR MAX TEMP:  59; 6HR PCP: TRACE;

ELY            CLOUDY    55  43  62 SE7       29.73S
HIBBING        LGT RAIN  49  49 100 CALM      29.72S
EVELETH        DRIZZLE   53  45  76 CALM      29.74F
DULUTH HARBOR  CLOUDY    46  43  87 E3        29.75F
TWO HARBORS    CLOUDY    55  46  71 CALM      29.72S
SILVER BAY     CLOUDY    55  46  71 N3        29.72F
GRAND MARAIS     N/A     55  45  68 NE6       29.75S
G MARAIS ARPRT CLOUDY    48  39  71 E5        29.78S
$$
MNZ029>031-032-039>041-046>048-054>057-064-260700-
   West Central Minnesota

CITY           SKY/WX    TMP DP  RH WIND       PRES   REMARKS
FERGUS FALLS   CLEAR     57  52  82 S7        29.61S
WHEATON        PTCLDY    52  50  93 SE7       29.64R
MORRIS         CLOUDY    55  52  88 SE7       29.62S
ALEXANDRIA     CLOUDY    60  52  74 S9        29.65S
ELBOW LAKE     FAIR      55  52  90 SE7       29.63S
WADENA         CLOUDY    57  52  82 SE7       29.64S
GLENWOOD       PTCLDY    57  52  82 SE8       29.66S
APPLETON       CLOUDY    57  52  82 S5        29.63S
BENSON         CLEAR     59  52  77 S9        29.65S
ORTONVILLE     CLOUDY    54  52  94 CALM      29.63R
MADISON        PTCLDY    57  57 100 S3        29.63S
WILLMAR        FAIR      57  52  82 SE6       29.67S
$$
MNZ033>034-036-042>043-049>051-058-059-260700-
   Central Minnesota

CITY           SKY/WX    TMP DP  RH WIND       PRES   REMARKS
ST CLOUD       CLOUDY    59  55  87 SE6       29.68S
6HR MIN TEMP:  59; 6HR MAX TEMP:  66; 6HR PCP: TRACE;

SAUK CENTRE    MOCLDY    57  52  84 SE7       29.66S
PAYNESVILLE    CLEAR     58  51  79 SE5       29.67S
AITKIN         CLOUDY    52  48  87 E5        29.69S
PINE RIVER     CLOUDY    55  54  94 SE7       29.71S
BRAINERD       CLOUDY    56  54  93 SE5       29.68S
STAPLES        CLOUDY    57  52  82 SE6       29.65F
LONG PRAIRIE   CLOUDY    55  52  88 E7        29.66S
LITTLE FALLS   CLOUDY    59  52  77 SE7       29.67F
LITCHFIELD     CLOUDY    61  54  77 SE5       29.68S
BUFFALO        CLOUDY    60  52  74 SE3       29.69F
MAPLE LAKE     CLOUDY    61  55  80 S5        29.69S
HUTCHINSON     CLOUDY    60  54  80 SE6       29.68S
$$
MNZ037-044-045-052-053-260700-
   East Central Minnesota

CITY           SKY/WX    TMP DP  RH WIND       PRES   REMARKS
PRINCETON      CLOUDY    61  55  82 E3        29.69F
MORA           RAIN      55  54  94 CALM      29.72F
CAMBRIDGE      CLOUDY    61  54  77 CALM      29.69S
RUSH CITY      LGT RAIN  58  55  92 CALM      29.71F
MOOSE LAKE     DRIZZLE   48  45  87 CALM      29.72S
HINCKLEY       LGT RAIN  54  52  94 NE3       29.73S
CLOQUET        RAIN      50  43  76 CALM      29.73S
MCGREGOR       CLOUDY    50  48  93 E5        29.72S
$$
MNZ071>073-080-081-089-090-097-098-260700-
   Southwest Minnesota

CITY           SKY/WX    TMP DP  RH WIND       PRES   REMARKS
MONTEVIDEO     CLOUDY    57  52  82 S7        29.64S
CANBY          PTCLDY    60  53  76 CALM      29.64S
MARSHALL       CLEAR     56  52  86 S3        29.65S
REDWOOD FALLS  PTCLDY    56  50  80 S8        29.65S
OLIVIA         CLEAR     55  50  82 SE6       29.66R
PIPESTONE      CLEAR     57  46  67 CALM      29.67R
WINDOM         CLEAR     57  50  77 SE8       29.67S
WORTHINGTON    PTCLDY    59  52  77 S13       29.68S
JACKSON        CLEAR     57  50  77 CALM      29.68F
TRACY          CLEAR     59  53  80 S8        29.66S
SLAYTON        CLOUDY    52  50  92 SE5       29.67S
$$
MNZ065>067-074>077-082>085-091>093-260700-
   South Central Minnesota

CITY           SKY/WX    TMP DP  RH WIND       PRES   REMARKS
MANKATO        CLOUDY    58  51  78 SE8       29.69S
NEW ULM        CLEAR     57  48  72 SE6       29.67S
ST JAMES       CLEAR     59  52  77 SE10      29.68S
FAIRMONT       CLOUDY    59  50  72 S9        29.69R
GLENCOE        PTCLDY    61  55  82 SE8       29.67S
FARIBAULT      CLOUDY    61  54  77 SE6       29.70F
OWATONNA       CLOUDY    61  52  72 SE8       29.69F
WASECA         CLOUDY    59  52  77 SE3       29.71S
ALBERT LEA     CLOUDY    61  55  82 SE7       29.71F
$$
MNZ078>079-086>088-094>096-260700-
   Southeast Minnesota

CITY           SKY/WX    TMP DP  RH WIND       PRES   REMARKS
ROCHESTER      MOCLDY    57  55  93 SE8       29.75F
6HR MIN TEMP:  57; 6HR MAX TEMP:  65; 6HR PCP:  0.04;

RED WING       CLOUDY    61  55  82 E5        29.72S
STANTON        CLOUDY    62  54  74 SE3       29.69F
DODGE CENTER   CLOUDY    59  54  82 SE8       29.72F
WINONA         LGT RAIN  59  55  88 CALM      29.76S
AUSTIN         CLOUDY    61  52  72 SE5       29.72F
PRESTON        PTCLDY    59  53  81 S7        29.75F
$$
ABBREVIATIONS USED IN REMARKS
   TC - TEMPERATURES IN CELSIUS
  WCI - WIND CHILL INDEX
   HX - HEAT INDEX
  VSB - VISIBILITY
$$




USA.gov is the U.S. government's official web portal to all federal, state and local government web resources and services.